www.pogodaiklimat.ru

Погода и климат >> Архив погоды >> Словакия >> Гурбаново


ПОГОДА в Гурбаново

  • Прогноз погоды в Гурбаново
  • Монитор погоды в Гурбаново

АРХИВ ПОГОДЫ в Гурбаново

Время (UTC), дата Ветер
(напр.,м/с)
 
Видим.   Явления Облачность Т
(С)
Тd
(С)
f
(%)
Тe
(С)
Тes
(С)
Комфортность P
(гПа)
Po
(гПа)
Тmin
(С)
Tmax
(С)
R
(мм)
R24
(мм)
S
(см)
07 12.08 60 км 4/4 800 м
[Cu hum]
+25.3 +17.3 61 1014.3 1001.0
08 12.08 З 3 55 км 1/1 900 м
[Sc diur, vesp]
+28.3 +17.5 52 +32 +40 душно 1014.5 1001.3
09 12.08 З 3 50 км 1/1 900 м
[Sc diur, vesp]
+29.7 +17.2 47 +34 +43 очень
душно
1014.4 1001.3
10 12.08 З 2 50 км ясно +30.5 +17.3 45 +34 +49 очень
душно
1014.2 1001.1
11 12.08 45 км ясно +31.2 +17.2 43 1013.6 1000.6
12 12.08 нст 2 40 км 1/1 1080 м
[Cu hum]
+32.1 +17.6 42 +36 +49 очень
душно
1013.5 1000.5
13 12.08 40 км 1/1 1200 м
[Cu hum]
+33.2 +17.4 39 1012.6 999.7
14 12.08 40 км 1/1 1200 м
[Cu hum]
+33.8 +18.4 40 1012.0 999.1
15 12.08 нст 2 35 км 1/1 1200 м
[Cu hum]
+33.7 +18.7 41 +38 +43 очень
душно
1011.5 998.6
16 12.08 н/о н/о +33.7 +19.0 42 1010.6 997.7
17 12.08 н/о н/о +32.3 +19.6 47 1010.1 997.2
18 12.08 СВ 2 30 км 1/1 1200 м
[Sc diur, vesp Ac cuf]
+30.0 +19.7 54 +36 +36 очень
душно
1010.3 997.3 +34.3
19 12.08 С 2 30 км 3/1 1200 м
[Sc diur, vesp Ac cuf]
+28.2 +19.4 59 +34 +34 очень
душно
1011.1 998.0
20 12.08 С 2 25 км 1/1 1200 м
[Sc diur, vesp]
+26.3 +19.0 64 +31 +31 душно 1011.1 997.9
21 12.08 СЗ 3 н/о н/о +24.9 +19.1 70 +30 +30 душно 1011.7 998.4
22 12.08 З 3 н/о н/о +23.0 +18.8 77 +29 +29 очень
душно
1011.6 998.2
23 12.08 ЮЗ 3 н/о н/о +21.9 +18.5 81 +27 +27 душно 1011.9 998.5
00 13.08 З 5 н/о н/о +20.9 +17.5 81 +25 +25 комфорт 1013.5 1000.0
01 13.08 С 5 н/о н/о +20.5 +16.1 76 +23 +23 комфорт 1013.9 1000.4
02 13.08 С 5 н/о н/о +20.0 +16.1 78 +22 +22 комфорт 1013.6 1000.1
03 13.08 СЗ 4 н/о н/о +19.4 +16.2 82 +21 +21 комфорт 1014.2 1000.6
04 13.08 СЗ 5 н/о н/о +19.6 +16.3 81 +22 +22 комфорт 1014.4 1000.8
05 13.08 СЗ 5 н/о н/о +19.4 +16.1 81 +21 +21 комфорт 1015.2 1001.6
06 13.08 СЗ 6 >70 км 6/5 1300 м
[Sc diur, vesp Ac trans Ci fib]
+20.2 +15.2 73 +22 +23 комфорт 1015.0 1001.5 +19.4
07 13.08 СЗ 6 55 км слаб. дождь 9/9 1300 м
[Sc diur, vesp]
+20.6 +15.2 71 +23 +23 комфорт 1015.4 1001.9
08 13.08 СЗ 6 >70 км в посл. час дождь 9/8 700 м
[Cu Sc Ac lent]
+21.1 +14.5 66 +24 +24 комфорт 1015.8 1002.3
09 13.08 С 7 >70 км {дождь} 6/3 800 м
[Cu Sc Ac lent Ci fib]
+24.3 +13.8 52 +27 +29 жарко 1015.5 1002.1
10 13.08 СЗ 7 >70 км 6/5 900 м
[Cu Sc Ac lent Ci sp]
+25.9 +14.1 48 +28 +30 жарко 1015.4 1002.1
11 13.08 СЗ 7 >70 км осадки на расстоянии 9/8 900 м
[Cu Sc Ac lent Ci sp]
+24.7 +14.5 53 +27 +28 жарко 1015.8 1002.4
12 13.08 СЗ 5 6000 м гроза, ливневой дождь 9/9 900 м
[Cb cap]
+20.7 +16.7 78 +24 +25 комфорт 1016.6 1003.1 0.6
13 13.08 СЗ 3 30 км в посл. час гроза {ливн. осадки} 8/3 900 м
[Cb cap Ac cuf Ci ing]
+21.9 +18.7 82 +27 +31 душно 1015.4 1001.9
14 13.08 С 5 30 км 8/3 1200 м
[Cu med, cong Ac lent Ci ing]
+23.9 +16.4 63 +27 +29 жарко 1014.7 1001.3
15 13.08 СЗ 5 60 км {гроза, ливн. осадки} 6/3 900 м
[Cb calv Ac cuf Ci ing]
+24.6 +16.3 60 +28 +29 душно 1014.4 1001.1
16 13.08 С 5 >70 км 4/3 1000 м
[Cb calv Ac cuf Ci ing]
+24.5 +13.7 51 +27 +27 жарко 1014.4 1001.1
17 13.08 С 4 >70 км 5/1 1200 м
[Sc diur, vesp Ac trans Ci sp]
+24.2 +13.8 52 +26 +27 жарко 1014.3 1000.9
18 13.08 СЗ 3 >70 км {гроза, ливн. осадки} 8/4 1200 м
[Sc diur, vesp Ac cuf Ci sp]
+22.7 +13.5 56 +26 +26 жарко 1014.1 1000.7 +26.6 4
19 13.08 С 4 70 км 9/5 1200 м
[Sc diur, vesp Ac trans Ci sp]
+21.7 +12.3 55 +24 +24 комфорт 1014.2 1000.7
20 13.08 С 3 60 км зарница 9/6 1200 м
[Sc diur, vesp Ac cuf]
+21.0 +12.4 58 +24 +24 комфорт 1014.0 1000.5
21 13.08 СЗ 3 н/о н/о +19.5 +13.2 67 +21 +21 комфорт 1013.0 999.4
22 13.08 СЗ 3 н/о н/о +19.7 +13.4 67 +22 +22 комфорт 1013.7 1000.1
23 13.08 СЗ 4 н/о н/о +19.3 +13.9 71 +21 +21 комфорт 1013.4 999.8
00 14.08 СЗ 7 н/о н/о +17.5 +15.3 87 +17 +17 1013.6 999.9 2
01 14.08 СЗ 5 н/о н/о +16.7 +15.6 93 +16 +16 1014.6 1000.9
02 14.08 н/о н/о +16.7 +15.6 93 1013.8 1000.1
03 14.08 СЗ 5 н/о н/о +16.4 +14.9 91 +15 +15 1013.9 1000.2
04 14.08 СЗ 6 н/о н/о +15.9 +14.1 89 +15 +15 1014.2 1000.5
05 14.08 СЗ 4 н/о н/о +15.4 +13.9 91 +14 +14 1014.5 1000.7
06 14.08 СЗ 5 12 км слаб. дождь 10/10 700 м
[Sc]
+15.3 +13.8 91 +14 +14 1015.6 1001.8 +15.2 13
07 14.08 СЗ 4 25 км в посл. час дождь 10/10 700 м
[Sc]
+15.7 +13.7 88 +15 +15 1015.4 1001.6
08 14.08 СЗ 5 40 км 9/6 800 м
[Cu Sc Ac As]
+17.1 +14.2 83 +16 +17 1015.3 1001.6
09 14.08 СЗ 7 50 км {дождь} 9/4 800 м
[Cu Sc Ac As]
+18.1 +14.0 77 +17 +18 1014.8 1001.2
10 14.08 С 6 60 км 9/5 800 м
[Cu Sc Ac As]
+19.1 +13.5 70 +20 +21 1015.3 1001.7
11 14.08 С 6 >70 км 9/4 800 м
[Cu Sc Ac As Cs]
+20.2 +13.7 66 +22 +24 комфорт 1015.6 1002.0
12 14.08 С 7 >70 км {дождь} 8/3 900 м
[Cu Sc Ac lent Cs]
+21.7 +11.7 53 +24 +26 комфорт 1015.7 1002.2 0.0
13 14.08 С 6 >70 км 6/1 1000 м
[Cu med, cong Ac lent Ci sp]
+23.0 +12.6 52 +26 +29 жарко 1015.5 1002.1
14 14.08 С 6 >70 км 3/1 1080 м
[Cu med, cong Ac lent Ci sp]
+23.5 +10.9 45 +25 +27 комфорт 1015.6 1002.2
15 14.08 С 5 >70 км 1/1 1080 м
[Cu med, cong Ac lent Ci sp]
+23.1 +10.2 44 +25 +27 комфорт 1015.6 1002.2
16 14.08 С 4 н/о н/о +22.6 +10.1 45 +24 +24 комфорт 1015.8 1002.3
17 14.08 С 4 н/о н/о +21.7 +9.9 47 +23 +23 комфорт 1016.1 1002.6
18 14.08 С 3 60 км 1/0 2000 м
[Ac lent Ci fib]
+20.2 +10.0 52 +22 +22 комфорт 1016.8 1003.2 +23.5
19 14.08 СВ 2 40 км ясно +17.1 +11.4 69 +17 +17 1017.5 1003.8
20 14.08 С 2 40 км ясно +15.1 +11.9 81 +15 +15 1017.8 1004.0
21 14.08 СЗ 2 н/о н/о +13.9 +11.6 86 +13 +13 1018.1 1004.2
22 14.08 С 1 н/о н/о +13.1 +11.3 89 +13 +13 1018.2 1004.3
23 14.08 С 2 н/о н/о +12.4 +11.3 93 +11 +11 1018.2 1004.2
00 15.08 С 3 н/о н/о +12.0 +11.1 94 +10 +10 1018.2 1004.2
01 15.08 СЗ 1 н/о н/о +11.4 +10.5 94 +11 +11 1018.3 1004.3
02 15.08 штиль 0 н/о н/о +10.8 +10.0 95 +10 +10 1018.1 1004.0
03 15.08 н/о н/о +10.4 +9.6 95 1018.0 1003.9
04 15.08 З 1 н/о н/о +10.0 +9.4 96 +9 +9 1018.2 1004.1
05 15.08 штиль 0 н/о н/о +10.9 +10.4 97 +10 +10 1018.3 1004.2
06 15.08 штиль 0 35 км 1/0
[Ci fib]
+14.9 +11.3 79 +15 +19 1018.2 1004.3 +10.0
07 15.08 40 км 1/0
[Ci fib]
+17.4 +12.3 72 1017.9 1004.2
08 15.08 40 км 1/1 1080 м
[Cu hum]
+20.7 +11.6 56 1017.4 1003.8
09 15.08 нст 2 40 км 1/1 1080 м
[Cu hum]
+23.2 +10.6 45 +25 +37 комфорт 1017.0 1003.5
10 15.08 45 км 1/1 1080 м
[Cu hum]
+24.2 +9.4 39 1016.4 1003.0
11 15.08 45 км 1/1 1200 м
[Cu hum]
+24.7 +8.7 36 1015.9 1002.5
12 15.08 нст 2 45 км 3/3 1200 м
[Cu med, cong]
+25.7 +8.3 33 +26 +36 жарко 1015.5 1002.2
13 15.08 СВ 2 55 км 3/3 1200 м
[Cu med, cong]
+25.5 +8.1 33 +26 +34 жарко 1015.1 1001.8
14 15.08 55 км 3/3 1200 м
[Cu med, cong]
+25.2 +6.4 30 1014.9 1001.5
15 15.08 З 2 55 км 1/1 1200 м
[Cu med, cong]
+26.1 +6.7 29 +26 +30 жарко 1014.7 1001.4
16 15.08 н/о н/о +25.0 +6.3 30 1014.6 1001.2
17 15.08 н/о н/о +23.0 +9.4 42 1014.5 1001.1
18 15.08 ЮЗ 1 45 км 1/0
[Ci fib]
+20.1 +10.2 53 +23 +23 комфорт 1014.9 1001.3 +26.2
19 15.08 ЮВ 1 40 км 1/0
[Ci fib]
+17.9 +12.2 69 +19 +19 1015.4 1001.7
20 15.08 Ю 1 35 км 3/0
[Ac lent Ci]
+16.8 +13.1 79 +18 +18 1015.7 1002.0
21 15.08 Ю 2 н/о н/о +17.2 +12.1 72 +18 +18 1016.0 1002.3
22 15.08 Ю 2 н/о н/о +17.2 +12.1 72 +18 +18 1016.1 1002.4
23 15.08 Ю 3 н/о н/о +16.0 +12.2 78 +16 +16 1016.0 1002.2
00 16.08 Ю 2 н/о н/о +15.1 +11.5 79 +15 +15 1015.8 1002.0
01 16.08 Ю 2 н/о н/о +16.0 +11.4 74 +16 +16 1015.8 1002.0
02 16.08 н/о н/о +15.6 +11.6 77 1015.6 1001.8
03 16.08 Ю 2 н/о н/о +15.7 +12.3 80 +16 +16 1015.7 1001.9
04 16.08 н/о н/о +15.7 +12.8 83 1016.0 1002.2
05 16.08 н/о н/о +15.9 +13.0 83 1016.3 1002.5
06 16.08 нст 1 30 км 8/6 1200 м
[Sc Ac lent Ci sp]
+16.7 +13.4 81 +18 +19 1016.7 1003.0 +15.0
07 16.08 СЗ 3 30 км 8/6 1200 м
[Sc Ac cast Ci sp]
+20.1 +14.0 68 +23 +24 комфорт 1016.8 1003.2
08 16.08 С 3 35 км 9/8 1200 м
[Sc Ac lent]
+19.9 +13.6 67 +22 +23 комфорт 1017.1 1003.5
09 16.08 нст 2 35 км 9/9 1200 м
[Sc]
+20.5 +14.0 66 +24 +25 комфорт 1017.3 1003.7
10 16.08 СЗ 4 25 км гроза без осадков 9/9 1080 м
[Cb calv]
+21.9 +14.6 63 +25 +26 комфорт 1017.0 1003.5
11 16.08 СЗ 3 25 км гроза без осадков 9/8 1000 м
[Cb calv Ac lent Ci sp]
+24.2 +14.3 54 +27 +29 жарко 1016.7 1003.3
12 16.08 нст 2 30 км в посл. час гроза 8/6 1080 м
[Sc diur, vesp Ac lent Ci sp]
+24.5 +14.0 52 +27 +31 жарко 1016.5 1003.1
13 16.08 СЗ 3 35 км 6/5 1080 м
[Cu med, cong Ac lent Ci]
+24.9 +14.1 51 +27 +31 жарко 1015.8 1002.5
14 16.08 СЗ 3 25 км в посл. час ливневой дождь 6/4 1080 м
[Cb calv Ac lent Cs]
+21.5 +15.1 67 +25 +28 комфорт 1015.8 1002.3
15 16.08 СЗ 4 40 км {ливн. осадки} 6/4 1080 м
[Cb calv Ac lent Cs]
+24.0 +14.4 55 +27 +28 жарко 1015.8 1002.4
16 16.08 СЗ 4 40 км 6/4 1080 м
[Cb calv Ac cast Ci sp]
+22.9 +12.8 53 +26 +26 жарко 1016.0 1002.5
17 16.08 СЗ 3 45 км 4/4 1080 м
[Cb calv Ac lent Ci sp]
+22.3 +13.9 59 +25 +26 комфорт 1016.4 1002.9
18 16.08 СЗ 3 40 км {ливн. осадки} 5/4 1200 м
[Sc Ac lent Ci sp]
+20.3 +14.0 67 +23 +23 комфорт 1016.8 1003.2 +25.1
19 16.08 СЗ 2 35 км 4/4 1200 м
[Sc Ac lent Ci fib]
+19.3 +14.6 74 +21 +21 комфорт 1017.2 1003.6
20 16.08 35 км 3/0
[Ac trans]
+18.0 +14.5 80 1017.4 1003.7
21 16.08 З 2 н/о н/о +16.5 +14.2 86 +17 +17 1017.7 1003.9
22 16.08 н/о н/о +15.4 +13.9 91 1017.6 1003.8
23 16.08 н/о н/о +14.8 +13.7 93 1017.5 1003.7
00 17.08 нст 1 н/о н/о +14.2 +13.2 94 +14 +14 1017.5 1003.6
01 17.08 н/о н/о +13.7 +13.1 96 1017.5 1003.6
02 17.08 З 1 н/о н/о +13.0 +12.4 96 +13 +13 1017.4 1003.5
03 17.08 Ю 1 н/о н/о +12.5 +11.9 96 +12 +12 1017.7 1003.7
04 17.08 ЮВ 2 н/о н/о +12.1 +11.6 97 +11 +11 1017.6 1003.6
05 17.08 н/о н/о +12.7 +12.2 97 1018.1 1004.1
06 17.08 нст 1 25 км 1/0
[Ci fib]
+16.1 +13.9 87 +17 +20 1018.0 1004.2 +12.1
07 17.08 30 км 1/0
[Ci fib]
+19.4 +15.1 76 1017.9 1004.3
08 17.08 35 км 1/1 1080 м
[Cu hum Cs]
+21.8 +15.0 65 1017.6 1004.1
09 17.08 нст 1 40 км 3/1 1080 м
[Cu hum Ci fib]
+24.4 +13.9 52 +27 +39 жарко 1017.3 1003.9
10 17.08 40 км 5/1 1080 м
[Cu hum Ci sp]
+24.8 +13.1 48 1017.2 1003.8
11 17.08 40 км 9/6 1080 м
[Sc diur, vesp Ac trans Ci]
+25.2 +13.1 47 1016.8 1003.4
12 17.08 нст 2 40 км 5/4 1080 м
[Sc diur, vesp Ac lent Ci sp]
+25.9 +13.4 46 +28 +35 жарко 1016.1 1002.8
13 17.08 45 км 5/3 1200 м
[Cu med, cong Ac cast Cc]
+27.1 +12.8 41 1015.8 1002.5
14 17.08 45 км 5/3 1200 м
[Cu med, cong Ac lent Ci]
+27.0 +12.3 40 1015.5 1002.2
15 17.08 нст 2 45 км 4/4 1200 м
[Cu med, cong Ci fib]
+27.2 +12.8 41 +29 +32 жарко 1015.0 1001.7
16 17.08 Ю 3 н/о н/о +26.7 +12.8 42 +28 +28 жарко 1014.7 1001.4
17 17.08 Ю 2 н/о н/о +24.9 +13.2 48 +27 +27 жарко 1015.0 1001.6
18 17.08 Ю 2 40 км 4/4 1200 м
[Sc Ac lent Ci fib]
+23.1 +14.1 57 +27 +27 душно 1014.6 1001.2 +27.7
19 17.08 Ю 2 35 км 5/0
[Ac trans]
+21.5 +14.7 65 +25 +25 комфорт 1015.2 1001.7
20 17.08 Ю 3 35 км 1/0
[Ci fib]
+20.2 +14.3 69 +23 +23 комфорт 1015.2 1001.6
21 17.08 Ю 3 н/о н/о +19.1 +14.4 74 +21 +21 комфорт 1015.2 1001.6
22 17.08 Ю 3 н/о н/о +18.4 +13.9 75 +19 +19 1015.3 1001.7
23 17.08 Ю 3 н/о н/о +18.2 +13.5 74 +19 +19 1014.8 1001.2
00 18.08 Ю 3 н/о н/о +18.2 +13.7 75 +19 +19 1015.0 1001.3
01 18.08 ЮВ 3 н/о н/о +18.7 +14.0 74 +20 +20 1014.6 1001.0
02 18.08 Ю 3 н/о н/о +19.2 +14.0 72 +21 +21 комфорт 1014.6 1001.0
03 18.08 ЮВ 3 н/о н/о +19.4 +14.0 71 +21 +21 комфорт 1014.3 1000.7
04 18.08 Ю 3 н/о н/о +19.5 +13.7 69 +21 +21 комфорт 1014.6 1001.0
05 18.08 ЮВ 2 н/о н/о +19.8 +14.4 71 +22 +22 комфорт 1014.6 1001.0
06 18.08 Ю 4 30 км 9/9 1200 м
[Sc]
+21.4 +14.1 63 +24 +24 комфорт 1014.2 1000.7 +18.1
07 18.08 30 км 10/10 1200 м
[Sc]
+22.3 +15.2 64 1014.8 1001.3
08 18.08 Ю 5 35 км 9/9 1200 м
[Sc]
+23.4 +14.7 58 +27 +28 душно 1014.6 1001.2
09 18.08 Ю 4 45 км 9/9 1200 м
[Sc Ac lent]
+24.0 +14.7 56 +27 +27 жарко 1014.6 1001.2
10 18.08 Ю 3 55 км 4/4 1200 м
[Sc]
+26.5 +15.0 49 +29 +36 жарко 1014.5 1001.2
11 18.08 Ю 3 65 км 1/1 1200 м
[Sc Ac lent Cc]
+28.7 +15.3 44 +31 +42 жарко 1013.8 1000.7
12 18.08 Ю 4 70 км 1/1 1200 м
[Sc Ac lent Ci sp]
+30.3 +16.0 42 +33 +41 душно 1013.5 1000.4
13 18.08 Ю 4 70 км ясно +31.2 +16.0 40 +34 +41 душно 1013.1 1000.1
14 18.08 Ю 4 70 км ясно +32.3 +14.9 35 +34 +40 душно 1012.7 999.7
15 18.08 ЮЗ 3 70 км ясно +32.7 +11.8 28 +33 +37 жарко 1012.6 999.6
16 18.08 Ю 4 65 км ясно +31.3 +14.0 35 +33 +34 жарко 1012.5 999.5
17 18.08 ЮЗ 3 60 км ясно +29.5 +14.9 41 +32 +32 душно 1012.8 999.7
18 18.08 Ю 3 55 км ясно +26.9 +15.3 49 +30 +30 душно 1013.0 999.8 +33.1
19 18.08 Ю 3 45 км ясно +24.2 +15.7 59 +27 +27 жарко 1013.6 1000.3
20 18.08 Ю 3 40 км ясно +22.8 +15.6 64 +27 +27 душно 1013.8 1000.4
21 18.08 ЮВ 2 н/о н/о +21.4 +15.0 67 +25 +25 комфорт 1014.1 1000.6
22 18.08 ЮВ 3 н/о н/о +20.2 +15.0 72 +23 +23 комфорт 1014.2 1000.7
23 18.08 ЮВ 3 н/о н/о +20.2 +14.6 70 +23 +23 комфорт 1014.1 1000.6
00 19.08 ЮВ 3 н/о н/о +19.4 +14.9 75 +21 +21 комфорт 1014.1 1000.5
01 19.08 ЮВ 2 н/о н/о +18.7 +15.0 79 +20 +20 1014.2 1000.6
02 19.08 ЮВ 3 н/о н/о +18.4 +15.3 82 +19 +19 1014.3 1000.7
03 19.08 ЮВ 3 н/о н/о +18.5 +15.8 84 +19 +19 1014.4 1000.8
04 19.08 ЮВ 4 н/о н/о +19.3 +15.6 79 +21 +21 комфорт 1014.4 1000.8
05 19.08 ЮВ 2 н/о н/о +20.1 +15.8 76 +23 +23 комфорт 1014.8 1001.2
06 19.08 ЮВ 2 45 км 4/0
[Ac lent Ci fib]
+23.8 +16.6 64 +27 +29 жарко 1015.4 1002.0 +18.4
07 19.08 Ю 3 45 км 4/0
[Ac lent Ci fib]
+26.1 +16.4 55 +30 +33 душно 1015.6 1002.3

 

Местоположение метеостанции Гурбаново (Словакия): широта 47.87 долгота 18.20 высота над уровнем моря 124 м.

В архиве по умолчанию представлена погода в Гурбаново за последнюю неделю. Архивные данные за месяц целиком и за предыдущие месяцы, начиная с января 2011 года, Вы можете получить, выбрав интересующий диапазон дат из раскрывающегося списка и нажав кнопку "Ввод!".


*Определитесь, кто Вы:
робот инопланетянин человек

Внимание! Время в таблицах - всемирное. Для получения местного времени необходимо прибавить поправку, которая равна 1 ч.

Смотрите также архив погоды в соседних городах и на ближайших метеорологических станциях:

Погода в Тате (Венгрия) (26 км)
Погода в Тате (Венгрия) (33 км)
Погода в Пер аэропорту (Венгрия) (40 км)
Погода в Дьере (Венгрия) (42 км)
Погода в Нитре (Словакия) (46 км)
Погода в Моховце (Словакия) (49 км)
Погода в Дудинце (Словакия) (60 км)
Погода в Мошонмадьяроваре (Венгрия) (69 км)
Погода на Базе ВВС Папа (Венгрия) (77 км)
Погода в Ясловске Богунице (Словакия) (78 км)

Пояснения к столбцам:

Ветер - указаны скорость ветра в м/с - средняя за 10 мин, порывы в срок и между сроками (в фигурных скобках) и направление, откуда дует ветер: С - северный, СВ - северо-восточный, В - восточный, ЮВ - юго-восточный, Ю - южный, ЮЗ - юго-западный, З - западный, СЗ - северо-западный.
Видимость - горизонтальная дальность видимости в метрах или километрах. При видимости от 1 до 10 км при отсутствии осадков обычно наблюдается дымка, при ухудшении видимости до 1 км и менее - туман. В сухую погоду видимость может ухудшаться дымом, пылью или мглою.
Явления - указаны атмосферные явления, наблюдавшиеся в срок или в последний час перед сроком; фигурными скобками обозначены явления, наблюдавшиеся между сроками (за 1-3 часа до срока); квадратными скобками обозначены град или гололедные отложения с указанием их диаметра в мм.
Облачность - указаны через наклонную черту общая и нижняя облачность в баллах и высота нижней границы облаков в метрах; квадратными скобками обозначены формы облаков: Ci - перистые, Cs - перисто-слоистые, Cc - перисто-кучевые, Ac - высококучевые, As - высокослоистые, Sc - слоисто-кучевые, Ns - слоисто-дождевые, Cu - кучевые, Cb - кучево-дождевые. Подробнее классификацию облаков см. в Атласе облаков (PDF).
T - Температура воздуха - температура, измеренная на высоте 2 м над землей.
Td - Температура точки росы - температура, при понижении до которой содержащийся в воздухе водяной пар достигнет насыщения.
f - Относительная влажность воздуха - влажноcть воздуха, измеренная на высоте 2 м над землей.
Te - Эффективная температура - температура, которую ощущает одетый по сезону человек в тени. Характеристика душности погоды. При расчете учитывается влияние влажности воздуха и скорости ветра на теплоощущения человека.
Tes - Эффективная температура на солнце - температура, которую ощущает человек, с поправкой на солнечный нагрев. Характеристика знойности погоды. Зависит от высоты солнца над горизонтом, облачности и скорости ветра. Ночью, в пасмурную погоду, а также при ветре 12 м/с и более поправка равна нулю.
P - Атмосферное давление - приведенное к уровню моря атмосферное давление.
Po - Атмосферное давление - измеренное на уровне метеостанции атмосферное давление.
Tmin - Минимальная температура - минимум температуры воздуха на высоте 2 м над землей.
Tmax - Максимальная температура - максимум температуры воздуха на высоте 2 м над землей.
R - Количество осадков - Количество выпавших осадков за период времени, мм. При наведении курсора мыши на число - период времени, за который выпало указанное количество осадков.
R24 - Количество осадков - Количество выпавших осадков за 24 часа, мм.
S - Снежный покров - Высота снежного покрова, см. При наведении курсора мыши на число - состояние снежного покрова и степень покрытия местности в баллах.